NOAA 18

Last updated on Fri Oct 11 2024 00:02:17 GMT+0000 (Coordinated Universal Time)

1 28654U 05018A 24284.53546278 .00000898 00000+0 50107-3 0 9999 2 28654 98.8661 0.5055 0015230 96.7931 263.4974 14.13365965999461
UTC large
Height (km)
Speed (km/s)
/
Latitude / Longitude
Inclination (degrees)
Orbital Period (minutes)
Azimuth
Elevation
Range (km)
Doppler Factor

Next 0 passes for location: London (51.5072 / 0.1276)

Sorry there are no passes over London.